Year,Month,Day,Hour,Minute,Value (Times are PST for temperature in C)
2009,07,24,00,00,15.30
2009,07,24,00,01,15.30
2009,07,24,00,02,15.30
2009,07,24,00,03,15.20
2009,07,24,00,04,15.20
2009,07,24,00,05,15.20
2009,07,24,00,06,15.30
2009,07,24,00,07,15.30
2009,07,24,00,08,15.30
2009,07,24,00,09,15.30
2009,07,24,00,10,15.30
2009,07,24,00,11,15.30
2009,07,24,00,12,15.20
2009,07,24,00,13,15.20
2009,07,24,00,14,15.20
2009,07,24,00,15,15.20
2009,07,24,00,16,15.20
2009,07,24,00,17,15.10
2009,07,24,00,18,15.10
2009,07,24,00,19,15.10
2009,07,24,00,20,15.00
2009,07,24,00,21,15.00
2009,07,24,00,22,15.00
2009,07,24,00,23,15.00
2009,07,24,00,24,15.00
2009,07,24,00,25,15.00
2009,07,24,00,26,15.00
2009,07,24,00,27,15.00
2009,07,24,00,28,15.00
2009,07,24,00,29,15.00
2009,07,24,00,30,15.00
2009,07,24,00,31,15.00
2009,07,24,00,32,15.00
2009,07,24,00,33,15.00
2009,07,24,00,34,15.00
2009,07,24,00,35,14.90
2009,07,24,00,36,14.90
2009,07,24,00,37,14.80
2009,07,24,00,38,14.80
2009,07,24,00,39,14.80
2009,07,24,00,40,14.80
2009,07,24,00,41,14.80
2009,07,24,00,42,14.80
2009,07,24,00,43,14.80
2009,07,24,00,44,14.70
2009,07,24,00,45,14.70
2009,07,24,00,46,14.70
2009,07,24,00,47,14.70
2009,07,24,00,48,14.60
2009,07,24,00,49,14.60
2009,07,24,00,50,14.60
2009,07,24,00,51,14.60
2009,07,24,00,52,14.60
2009,07,24,00,53,14.50
2009,07,24,00,54,14.50
2009,07,24,00,55,14.40
2009,07,24,00,56,14.40
2009,07,24,00,57,14.40
2009,07,24,00,58,14.40
2009,07,24,00,59,14.40
2009,07,24,01,00,14.40
2009,07,24,01,01,14.30
2009,07,24,01,02,14.30
2009,07,24,01,03,14.30
2009,07,24,01,04,14.30
2009,07,24,01,05,14.30
2009,07,24,01,06,14.30
2009,07,24,01,07,14.20
2009,07,24,01,08,14.20
2009,07,24,01,09,14.20
2009,07,24,01,10,14.20
2009,07,24,01,11,14.10
2009,07,24,01,12,14.10
2009,07,24,01,13,14.10
2009,07,24,01,14,14.10
2009,07,24,01,15,14.10
2009,07,24,01,16,14.00
2009,07,24,01,17,14.00
2009,07,24,01,18,14.00
2009,07,24,01,19,13.90
2009,07,24,01,20,13.90
2009,07,24,01,21,13.90
2009,07,24,01,22,13.90
2009,07,24,01,23,13.90
2009,07,24,01,24,13.80
2009,07,24,01,25,13.80
2009,07,24,01,26,13.80
2009,07,24,01,27,13.80
2009,07,24,01,28,13.80
2009,07,24,01,29,13.80
2009,07,24,01,30,13.80
2009,07,24,01,31,13.80
2009,07,24,01,32,13.80
2009,07,24,01,33,13.80
2009,07,24,01,34,13.80
2009,07,24,01,35,13.80
2009,07,24,01,36,13.80
2009,07,24,01,37,13.70
2009,07,24,01,38,13.70
2009,07,24,01,39,13.70
2009,07,24,01,40,13.70
2009,07,24,01,41,13.70
2009,07,24,01,42,13.70
2009,07,24,01,43,13.70
2009,07,24,01,44,13.60
2009,07,24,01,45,13.60
2009,07,24,01,46,13.60
2009,07,24,01,47,13.60
2009,07,24,01,48,13.50
2009,07,24,01,49,13.50
2009,07,24,01,50,13.50
2009,07,24,01,51,13.50
2009,07,24,01,52,13.50
2009,07,24,01,53,13.50
2009,07,24,01,54,13.50
2009,07,24,01,55,13.50
2009,07,24,01,56,13.50
2009,07,24,01,57,13.60
2009,07,24,01,58,13.60
2009,07,24,01,59,13.60
2009,07,24,02,00,13.60
2009,07,24,02,01,13.60
2009,07,24,02,02,13.60
2009,07,24,02,03,13.60
2009,07,24,02,04,13.60
2009,07,24,02,05,13.60
2009,07,24,02,06,13.50
2009,07,24,02,07,13.50
2009,07,24,02,08,13.50
2009,07,24,02,09,13.50
2009,07,24,02,10,13.50
2009,07,24,02,11,13.50
2009,07,24,02,12,13.50
2009,07,24,02,13,13.40
2009,07,24,02,14,13.40
2009,07,24,02,15,13.40
2009,07,24,02,16,13.40
2009,07,24,02,17,13.40
2009,07,24,02,18,13.40
2009,07,24,02,19,13.40
2009,07,24,02,20,13.40
2009,07,24,02,21,13.40
2009,07,24,02,22,13.40
2009,07,24,02,23,13.40
2009,07,24,02,24,13.40
2009,07,24,02,25,13.40
2009,07,24,02,26,13.40
2009,07,24,02,27,13.40
2009,07,24,02,28,13.40
2009,07,24,02,29,13.40
2009,07,24,02,30,13.50
2009,07,24,02,31,13.40
2009,07,24,02,32,13.50
2009,07,24,02,33,13.40
2009,07,24,02,34,13.40
2009,07,24,02,35,13.40
2009,07,24,02,36,13.40
2009,07,24,02,37,13.40
2009,07,24,02,38,13.40
2009,07,24,02,39,13.40
2009,07,24,02,40,13.40
2009,07,24,02,41,13.40
2009,07,24,02,42,13.40
2009,07,24,02,43,13.40
2009,07,24,02,44,13.40
2009,07,24,02,45,13.40
2009,07,24,02,46,13.40
2009,07,24,02,47,13.40
2009,07,24,02,48,13.40
2009,07,24,02,49,13.40
2009,07,24,02,50,13.40
2009,07,24,02,51,13.40
2009,07,24,02,52,13.30
2009,07,24,02,53,13.30
2009,07,24,02,54,13.30
2009,07,24,02,55,13.30
2009,07,24,02,56,13.30
2009,07,24,02,57,13.30
2009,07,24,02,58,13.30
2009,07,24,02,59,13.30
2009,07,24,03,00,13.30
2009,07,24,03,01,13.30
2009,07,24,03,02,13.20
2009,07,24,03,03,13.20
2009,07,24,03,04,13.20
2009,07,24,03,05,13.20
2009,07,24,03,06,13.20
2009,07,24,03,07,13.20
2009,07,24,03,08,13.20
2009,07,24,03,09,13.20
2009,07,24,03,10,13.20
2009,07,24,03,11,13.20
2009,07,24,03,12,13.20
2009,07,24,03,13,13.20
2009,07,24,03,14,13.20
2009,07,24,03,15,13.20
2009,07,24,03,16,13.10
2009,07,24,03,17,13.10
2009,07,24,03,18,13.10
2009,07,24,03,19,13.10
2009,07,24,03,20,13.10
2009,07,24,03,21,13.00
2009,07,24,03,22,13.00
2009,07,24,03,23,13.00
2009,07,24,03,24,13.00
2009,07,24,03,25,13.00
2009,07,24,03,26,13.00
2009,07,24,03,27,13.00
2009,07,24,03,28,13.00
2009,07,24,03,29,13.00
2009,07,24,03,30,13.00
2009,07,24,03,31,13.00
2009,07,24,03,32,13.10
2009,07,24,03,33,13.10
2009,07,24,03,34,13.10
2009,07,24,03,35,13.10
2009,07,24,03,36,13.20
2009,07,24,03,37,13.20
2009,07,24,03,38,13.20
2009,07,24,03,39,13.20
2009,07,24,03,40,13.20
2009,07,24,03,41,13.20
2009,07,24,03,42,13.20
2009,07,24,03,43,13.20
2009,07,24,03,44,13.20
2009,07,24,03,45,13.20
2009,07,24,03,46,13.20
2009,07,24,03,47,13.20
2009,07,24,03,48,13.10
2009,07,24,03,49,13.10
2009,07,24,03,50,13.10
2009,07,24,03,51,13.10
2009,07,24,03,52,13.00
2009,07,24,03,53,13.00
2009,07,24,03,54,12.90
2009,07,24,03,55,12.90
2009,07,24,03,56,12.90
2009,07,24,03,57,12.90
2009,07,24,03,58,12.90
2009,07,24,03,59,12.90
2009,07,24,04,00,12.80
2009,07,24,04,01,12.80
2009,07,24,04,02,12.80
2009,07,24,04,03,12.80
2009,07,24,04,04,12.80
2009,07,24,04,05,12.80
2009,07,24,04,06,12.80
2009,07,24,04,07,12.80
2009,07,24,04,08,12.80
2009,07,24,04,09,12.70
2009,07,24,04,10,12.70
2009,07,24,04,11,12.70
2009,07,24,04,12,12.70
2009,07,24,04,13,12.70
2009,07,24,04,14,12.60
2009,07,24,04,15,12.60
2009,07,24,04,16,12.60
2009,07,24,04,17,12.60
2009,07,24,04,18,12.60
2009,07,24,04,19,12.60
2009,07,24,04,20,12.60
2009,07,24,04,21,12.60
2009,07,24,04,22,12.60
2009,07,24,04,23,12.60
2009,07,24,04,24,12.60
2009,07,24,04,25,12.60
2009,07,24,04,26,12.60
2009,07,24,04,27,12.60
2009,07,24,04,28,12.70
2009,07,24,04,29,12.70
2009,07,24,04,30,12.70
2009,07,24,04,31,12.70
2009,07,24,04,32,12.70
2009,07,24,04,33,12.70
2009,07,24,04,34,12.70
2009,07,24,04,35,12.70
2009,07,24,04,36,12.70
2009,07,24,04,37,12.70
2009,07,24,04,38,12.70
2009,07,24,04,39,12.80
2009,07,24,04,40,12.80
2009,07,24,04,41,12.80
2009,07,24,04,42,12.80
2009,07,24,04,43,12.80
2009,07,24,04,44,12.70
2009,07,24,04,45,12.70
2009,07,24,04,46,12.70
2009,07,24,04,47,12.70
2009,07,24,04,48,12.70
2009,07,24,04,49,12.70
2009,07,24,04,50,12.70
2009,07,24,04,51,12.70
2009,07,24,04,52,12.70
2009,07,24,04,53,12.70
2009,07,24,04,54,12.70
2009,07,24,04,55,12.70
2009,07,24,04,56,12.70
2009,07,24,04,57,12.60
2009,07,24,04,58,12.60
2009,07,24,04,59,12.60
2009,07,24,05,00,12.60
2009,07,24,05,01,12.60
2009,07,24,05,02,12.60
2009,07,24,05,03,12.60
2009,07,24,05,04,12.60
2009,07,24,05,05,12.50
2009,07,24,05,06,12.50
2009,07,24,05,07,12.50
2009,07,24,05,08,12.50
2009,07,24,05,09,12.40
2009,07,24,05,10,12.40
2009,07,24,05,11,12.40
2009,07,24,05,12,12.40
2009,07,24,05,13,12.40
2009,07,24,05,14,12.40
2009,07,24,05,15,12.40
2009,07,24,05,16,12.40
2009,07,24,05,17,12.40
2009,07,24,05,18,12.40
2009,07,24,05,19,12.40
2009,07,24,05,20,12.40
2009,07,24,05,21,12.40
2009,07,24,05,22,12.40
2009,07,24,05,23,12.40
2009,07,24,05,24,12.40
2009,07,24,05,25,12.40
2009,07,24,05,26,12.40
2009,07,24,05,27,12.40
2009,07,24,05,28,12.40
2009,07,24,05,29,12.40
2009,07,24,05,30,12.40
2009,07,24,05,31,12.40
2009,07,24,05,32,12.40
2009,07,24,05,33,12.40
2009,07,24,05,34,12.40
2009,07,24,05,35,12.40
2009,07,24,05,36,12.30
2009,07,24,05,37,12.30
2009,07,24,05,38,12.30
2009,07,24,05,39,12.30
2009,07,24,05,40,12.30
2009,07,24,05,41,12.30
2009,07,24,05,42,12.40
2009,07,24,05,43,12.40
2009,07,24,05,44,12.40
2009,07,24,05,45,12.40
2009,07,24,05,46,12.40
2009,07,24,05,47,12.40
2009,07,24,05,48,12.40
2009,07,24,05,49,12.40
2009,07,24,05,50,12.40
2009,07,24,05,51,12.40
2009,07,24,05,52,12.40
2009,07,24,05,53,12.40
2009,07,24,05,54,12.40
2009,07,24,05,55,12.40
2009,07,24,05,56,12.40
2009,07,24,05,57,12.40
2009,07,24,05,58,12.40
2009,07,24,05,59,12.40
2009,07,24,06,00,12.40
2009,07,24,06,01,12.40
2009,07,24,06,02,12.40
2009,07,24,06,03,12.40
2009,07,24,06,04,12.50
2009,07,24,06,05,12.50
2009,07,24,06,06,12.50
2009,07,24,06,07,12.50
2009,07,24,06,08,12.50
2009,07,24,06,09,12.50
2009,07,24,06,10,12.50
2009,07,24,06,11,12.50
2009,07,24,06,12,12.50
2009,07,24,06,13,12.50
2009,07,24,06,14,12.40
2009,07,24,06,15,12.40
2009,07,24,06,16,12.40
2009,07,24,06,17,12.40
2009,07,24,06,18,12.40
2009,07,24,06,19,12.40
2009,07,24,06,20,12.40
2009,07,24,06,21,12.40
2009,07,24,06,22,12.40
2009,07,24,06,23,12.40
2009,07,24,06,24,12.40
2009,07,24,06,25,12.40
2009,07,24,06,26,12.50
2009,07,24,06,27,12.50
2009,07,24,06,28,12.50
2009,07,24,06,29,12.50
2009,07,24,06,30,12.50
2009,07,24,06,31,12.50
2009,07,24,06,32,12.50
2009,07,24,06,33,12.50
2009,07,24,06,34,12.50
2009,07,24,06,35,12.50
2009,07,24,06,36,12.60
2009,07,24,06,37,12.60
2009,07,24,06,38,12.60
2009,07,24,06,39,12.60
2009,07,24,06,40,12.60
2009,07,24,06,41,12.60
2009,07,24,06,42,12.60
2009,07,24,06,43,12.60
2009,07,24,06,44,12.60
2009,07,24,06,45,12.60
2009,07,24,06,46,12.60
2009,07,24,06,47,12.60
2009,07,24,06,48,12.70
2009,07,24,06,49,12.70
2009,07,24,06,50,12.70
2009,07,24,06,51,12.70
2009,07,24,06,52,12.70
2009,07,24,06,53,12.70
2009,07,24,06,54,12.80
2009,07,24,06,55,12.80
2009,07,24,06,56,12.80
2009,07,24,06,57,12.80
2009,07,24,06,58,12.80
2009,07,24,06,59,12.80
2009,07,24,07,00,12.80
2009,07,24,07,01,12.90
2009,07,24,07,02,12.90
2009,07,24,07,03,12.90
2009,07,24,07,04,12.90
2009,07,24,07,05,12.90
2009,07,24,07,06,13.00
2009,07,24,07,07,13.00
2009,07,24,07,08,13.00
2009,07,24,07,09,13.10
2009,07,24,07,10,13.10
2009,07,24,07,11,13.10
2009,07,24,07,12,13.10
2009,07,24,07,13,13.20
2009,07,24,07,14,13.20
2009,07,24,07,15,13.20
2009,07,24,07,16,13.30
2009,07,24,07,17,13.30
2009,07,24,07,18,13.30
2009,07,24,07,19,13.30
2009,07,24,07,20,13.40
2009,07,24,07,21,13.40
2009,07,24,07,22,13.50
2009,07,24,07,23,13.50
2009,07,24,07,24,13.60
2009,07,24,07,25,13.60
2009,07,24,07,26,13.70
2009,07,24,07,27,13.70
2009,07,24,07,28,13.80
2009,07,24,07,29,13.80
2009,07,24,07,30,13.90
2009,07,24,07,31,13.90
2009,07,24,07,32,13.90
2009,07,24,07,33,14.00
2009,07,24,07,34,14.00
2009,07,24,07,35,14.10
2009,07,24,07,36,14.20
2009,07,24,07,37,14.20
2009,07,24,07,38,14.30
2009,07,24,07,39,14.30
2009,07,24,07,40,14.30
2009,07,24,07,41,14.40
2009,07,24,07,42,14.40
2009,07,24,07,43,14.50
2009,07,24,07,44,14.50
2009,07,24,07,45,14.60
2009,07,24,07,46,14.60
2009,07,24,07,47,14.70
2009,07,24,07,48,14.70
2009,07,24,07,49,14.70
2009,07,24,07,50,14.80
2009,07,24,07,51,14.80
2009,07,24,07,52,14.80
2009,07,24,07,53,14.80
2009,07,24,07,54,15.00
2009,07,24,07,55,15.00
2009,07,24,07,56,15.00
2009,07,24,07,57,15.00
2009,07,24,07,58,15.00
2009,07,24,07,59,15.00
2009,07,24,08,00,15.00
2009,07,24,08,01,15.10
2009,07,24,08,02,15.20
2009,07,24,08,03,15.20
2009,07,24,08,04,15.30
2009,07,24,08,05,15.30
2009,07,24,08,06,15.30
2009,07,24,08,07,15.40
2009,07,24,08,08,15.50
2009,07,24,08,09,15.50
2009,07,24,08,10,15.60
2009,07,24,08,11,15.60
2009,07,24,08,12,15.70
2009,07,24,08,13,15.80
2009,07,24,08,14,15.80
2009,07,24,08,15,15.90
2009,07,24,08,16,16.00
2009,07,24,08,17,16.00
2009,07,24,08,18,16.10
2009,07,24,08,19,16.20
2009,07,24,08,20,16.20
2009,07,24,08,21,16.30
2009,07,24,08,22,16.40
2009,07,24,08,23,16.40
2009,07,24,08,24,16.50
2009,07,24,08,25,16.60
2009,07,24,08,26,16.60
2009,07,24,08,27,16.70
2009,07,24,08,28,16.70
2009,07,24,08,29,16.80
2009,07,24,08,30,16.80
2009,07,24,08,31,16.90
2009,07,24,08,32,16.90
2009,07,24,08,33,17.00
2009,07,24,08,34,17.00
2009,07,24,08,35,17.10
2009,07,24,08,36,17.10
2009,07,24,08,37,17.10
2009,07,24,08,38,17.20
2009,07,24,08,39,17.20
2009,07,24,08,40,17.20
2009,07,24,08,41,17.30
2009,07,24,08,42,17.30
2009,07,24,08,43,17.30
2009,07,24,08,44,17.40
2009,07,24,08,45,17.40
2009,07,24,08,46,17.50
2009,07,24,08,47,17.50
2009,07,24,08,48,17.60
2009,07,24,08,49,17.60
2009,07,24,08,50,17.60
2009,07,24,08,51,17.70
2009,07,24,08,52,17.70
2009,07,24,08,53,17.70
2009,07,24,08,54,17.70
2009,07,24,08,55,17.70
2009,07,24,08,56,17.70
2009,07,24,08,57,17.60
2009,07,24,08,58,17.60
2009,07,24,08,59,17.60
2009,07,24,09,00,17.60
2009,07,24,09,01,17.60
2009,07,24,09,02,17.60
2009,07,24,09,03,17.60
2009,07,24,09,04,17.60
2009,07,24,09,05,17.70
2009,07,24,09,06,17.70
2009,07,24,09,07,17.70
2009,07,24,09,08,17.70
2009,07,24,09,09,17.70
2009,07,24,09,10,17.80
2009,07,24,09,11,17.80
2009,07,24,09,12,17.80
2009,07,24,09,13,17.80
2009,07,24,09,14,17.80
2009,07,24,09,15,17.90
2009,07,24,09,16,17.90
2009,07,24,09,17,17.90
2009,07,24,09,18,17.90
2009,07,24,09,19,17.90
2009,07,24,09,20,18.00
2009,07,24,09,21,18.00
2009,07,24,09,22,18.10
2009,07,24,09,23,18.10
2009,07,24,09,24,18.10
2009,07,24,09,25,18.20
2009,07,24,09,26,18.20
2009,07,24,09,27,18.20
2009,07,24,09,28,18.20
2009,07,24,09,29,18.20
2009,07,24,09,30,18.20
2009,07,24,09,31,18.30
2009,07,24,09,32,18.30
2009,07,24,09,33,18.30
2009,07,24,09,34,18.20
2009,07,24,09,35,18.20
2009,07,24,09,36,18.20
2009,07,24,09,37,18.20
2009,07,24,09,38,18.20
2009,07,24,09,39,18.20
2009,07,24,09,40,18.30
2009,07,24,09,41,18.30
2009,07,24,09,42,18.30
2009,07,24,09,43,18.30
2009,07,24,09,44,18.40
2009,07,24,09,45,18.40
2009,07,24,09,46,18.40
2009,07,24,09,47,18.50
2009,07,24,09,48,18.50
2009,07,24,09,49,18.50
2009,07,24,09,50,18.50
2009,07,24,09,51,18.60
2009,07,24,09,52,18.60
2009,07,24,09,53,18.60
2009,07,24,09,54,18.50
2009,07,24,09,55,18.50
2009,07,24,09,56,18.50
2009,07,24,09,57,18.40
2009,07,24,09,58,18.40
2009,07,24,09,59,18.40
2009,07,24,10,00,18.30
2009,07,24,10,01,18.30
2009,07,24,10,02,18.30
2009,07,24,10,03,18.20
2009,07,24,10,04,18.20
2009,07,24,10,05,18.30
2009,07,24,10,06,18.30
2009,07,24,10,07,18.30
2009,07,24,10,08,18.40
2009,07,24,10,09,18.40
2009,07,24,10,10,18.40
2009,07,24,10,11,18.40
2009,07,24,10,12,18.50
2009,07,24,10,13,18.50
2009,07,24,10,14,18.50
2009,07,24,10,15,18.60
2009,07,24,10,16,18.60
2009,07,24,10,17,18.70
2009,07,24,10,18,18.70
2009,07,24,10,19,18.70
2009,07,24,10,20,18.70
2009,07,24,10,21,18.70
2009,07,24,10,22,18.70
2009,07,24,10,23,18.60
2009,07,24,10,24,18.60
2009,07,24,10,25,18.60
2009,07,24,10,26,18.70
2009,07,24,10,27,18.70
2009,07,24,10,28,18.70
2009,07,24,10,29,18.70
2009,07,24,10,30,18.70
2009,07,24,10,31,18.70
2009,07,24,10,32,18.80
2009,07,24,10,33,18.80
2009,07,24,10,34,18.80
2009,07,24,10,35,18.80
2009,07,24,10,36,18.80
2009,07,24,10,37,18.80
2009,07,24,10,38,18.80
2009,07,24,10,39,18.80
2009,07,24,10,40,18.80
2009,07,24,10,41,18.80
2009,07,24,10,42,18.70
2009,07,24,10,43,18.70
2009,07,24,10,44,18.80
2009,07,24,10,45,18.80
2009,07,24,10,46,18.80
2009,07,24,10,47,18.90
2009,07,24,10,48,19.00
2009,07,24,10,49,19.00
2009,07,24,10,50,19.10
2009,07,24,10,51,19.10
2009,07,24,10,52,19.10
2009,07,24,10,53,19.10
2009,07,24,10,54,19.20
2009,07,24,10,55,19.20
2009,07,24,10,56,19.20
2009,07,24,10,57,19.30
2009,07,24,10,58,19.30
2009,07,24,10,59,19.20
2009,07,24,11,00,19.30
2009,07,24,11,01,19.30
2009,07,24,11,02,19.40
2009,07,24,11,03,19.30
2009,07,24,11,04,19.30
2009,07,24,11,05,19.30
2009,07,24,11,06,19.30
2009,07,24,11,07,19.40
2009,07,24,11,08,19.40
2009,07,24,11,09,19.50
2009,07,24,11,10,19.60
2009,07,24,11,11,19.70
2009,07,24,11,12,19.80
2009,07,24,11,13,19.70
2009,07,24,11,14,19.70
2009,07,24,11,15,19.70
2009,07,24,11,16,19.70
2009,07,24,11,17,19.70
2009,07,24,11,18,19.60
2009,07,24,11,19,19.50
2009,07,24,11,20,19.40
2009,07,24,11,21,19.30
2009,07,24,11,22,19.30
2009,07,24,11,23,19.30
2009,07,24,11,24,19.40
2009,07,24,11,25,19.50
2009,07,24,11,26,19.60
2009,07,24,11,27,19.60
2009,07,24,11,28,19.60
2009,07,24,11,29,19.50
2009,07,24,11,30,19.30
2009,07,24,11,31,19.30
2009,07,24,11,32,19.40
2009,07,24,11,33,19.40
2009,07,24,11,34,19.50
2009,07,24,11,35,19.50
2009,07,24,11,36,19.60
2009,07,24,11,37,19.50
2009,07,24,11,38,19.40
2009,07,24,11,39,19.40
2009,07,24,11,40,19.40
2009,07,24,11,41,19.30
2009,07,24,11,42,19.30
2009,07,24,11,43,19.40
2009,07,24,11,44,19.40
2009,07,24,11,45,19.40
2009,07,24,11,46,19.30
2009,07,24,11,47,19.30
2009,07,24,11,48,19.30
2009,07,24,11,49,19.40
2009,07,24,11,50,19.40
2009,07,24,11,51,19.50
2009,07,24,11,52,19.50
2009,07,24,11,53,19.40
2009,07,24,11,54,19.40
2009,07,24,11,55,19.40
2009,07,24,11,56,19.40
2009,07,24,11,57,19.40
2009,07,24,11,58,19.40
2009,07,24,11,59,19.40
2009,07,24,12,00,19.40
2009,07,24,12,01,19.50
2009,07,24,12,02,19.70
2009,07,24,12,03,19.80
2009,07,24,12,04,19.90
2009,07,24,12,05,19.80
2009,07,24,12,06,19.80
2009,07,24,12,07,19.70
2009,07,24,12,08,19.70
2009,07,24,12,09,19.60
2009,07,24,12,10,19.60
2009,07,24,12,11,19.70
2009,07,24,12,12,19.70
2009,07,24,12,13,19.80
2009,07,24,12,14,19.90
2009,07,24,12,15,20.00
2009,07,24,12,16,20.10
2009,07,24,12,17,20.20
2009,07,24,12,18,20.20
2009,07,24,12,19,20.20
2009,07,24,12,20,20.20
2009,07,24,12,21,20.20
2009,07,24,12,22,20.20
2009,07,24,12,23,20.20
2009,07,24,12,24,20.20
2009,07,24,12,25,20.20
2009,07,24,12,26,20.30
2009,07,24,12,27,20.40
2009,07,24,12,28,20.50
2009,07,24,12,29,20.60
2009,07,24,12,30,20.70
2009,07,24,12,31,20.80
2009,07,24,12,32,20.80
2009,07,24,12,33,20.80
2009,07,24,12,34,20.90
2009,07,24,12,35,20.90
2009,07,24,12,36,20.90
2009,07,24,12,37,20.90
2009,07,24,12,38,20.90
2009,07,24,12,39,20.90
2009,07,24,12,40,20.80
2009,07,24,12,41,20.70
2009,07,24,12,42,20.60
2009,07,24,12,43,20.40
2009,07,24,12,44,20.40
2009,07,24,12,45,20.50
2009,07,24,12,46,20.60
2009,07,24,12,47,20.60
2009,07,24,12,48,20.50
2009,07,24,12,49,20.40
2009,07,24,12,50,20.40
2009,07,24,12,51,20.40
2009,07,24,12,52,20.30
2009,07,24,12,53,20.20
2009,07,24,12,54,20.30
2009,07,24,12,55,20.40
2009,07,24,12,56,20.50
2009,07,24,12,57,20.60
2009,07,24,12,58,20.70
2009,07,24,12,59,20.60
2009,07,24,13,00,20.50
2009,07,24,13,01,20.50
2009,07,24,13,02,20.50
2009,07,24,13,03,20.50
2009,07,24,13,04,20.60
2009,07,24,13,05,20.70
2009,07,24,13,06,20.60
2009,07,24,13,07,20.70
2009,07,24,13,08,20.70
2009,07,24,13,09,20.70
2009,07,24,13,10,20.70
2009,07,24,13,11,20.70
2009,07,24,13,12,20.70
2009,07,24,13,13,20.70
2009,07,24,13,14,20.70
2009,07,24,13,15,20.70
2009,07,24,13,16,20.70
2009,07,24,13,17,20.60
2009,07,24,13,18,20.60
2009,07,24,13,19,20.70
2009,07,24,13,20,20.80
2009,07,24,13,21,20.90
2009,07,24,13,22,21.10
2009,07,24,13,23,21.20
2009,07,24,13,24,21.20
2009,07,24,13,25,21.20
2009,07,24,13,26,21.20
2009,07,24,13,27,21.10
2009,07,24,13,28,21.10
2009,07,24,13,29,21.20
2009,07,24,13,30,21.20
2009,07,24,13,31,21.20
2009,07,24,13,32,21.20
2009,07,24,13,33,21.30
2009,07,24,13,34,21.30
2009,07,24,13,35,21.30
2009,07,24,13,36,21.20
2009,07,24,13,37,21.10
2009,07,24,13,38,21.10
2009,07,24,13,39,21.20
2009,07,24,13,40,21.30
2009,07,24,13,41,21.30
2009,07,24,13,42,21.30
2009,07,24,13,43,21.20
2009,07,24,13,44,21.10
2009,07,24,13,45,21.20
2009,07,24,13,46,21.40
2009,07,24,13,47,21.50
2009,07,24,13,48,21.50
2009,07,24,13,49,21.50
2009,07,24,13,50,21.50
2009,07,24,13,51,21.40
2009,07,24,13,52,21.30
2009,07,24,13,53,21.30
2009,07,24,13,54,21.40
2009,07,24,13,55,21.40
2009,07,24,13,56,21.40
2009,07,24,13,57,21.30
2009,07,24,13,58,21.30
2009,07,24,13,59,21.30
2009,07,24,14,00,21.30
2009,07,24,14,01,21.30
2009,07,24,14,02,21.20
2009,07,24,14,03,21.20
2009,07,24,14,04,21.20
2009,07,24,14,05,21.20
2009,07,24,14,06,21.20
2009,07,24,14,07,21.10
2009,07,24,14,08,21.00
2009,07,24,14,09,21.00
2009,07,24,14,10,21.00
2009,07,24,14,11,21.10
2009,07,24,14,12,21.20
2009,07,24,14,13,21.20
2009,07,24,14,14,21.20
2009,07,24,14,15,21.30
2009,07,24,14,16,21.50
2009,07,24,14,17,21.70
2009,07,24,14,18,21.80
2009,07,24,14,19,21.60
2009,07,24,14,20,21.50
2009,07,24,14,21,21.50
2009,07,24,14,22,21.50
2009,07,24,14,23,21.60
2009,07,24,14,24,21.70
2009,07,24,14,25,21.80
2009,07,24,14,26,21.80
2009,07,24,14,27,21.70
2009,07,24,14,28,21.70
2009,07,24,14,29,21.80
2009,07,24,14,30,21.80
2009,07,24,14,31,21.80
2009,07,24,14,32,21.80
2009,07,24,14,33,21.70
2009,07,24,14,34,21.70
2009,07,24,14,35,21.70
2009,07,24,14,36,21.70
2009,07,24,14,37,21.70
2009,07,24,14,38,21.70
2009,07,24,14,39,21.70
2009,07,24,14,40,21.80
2009,07,24,14,41,21.80
2009,07,24,14,42,21.80
2009,07,24,14,43,21.80
2009,07,24,14,44,21.80
2009,07,24,14,45,21.80
2009,07,24,14,46,21.80
2009,07,24,14,47,21.80
2009,07,24,14,48,21.80
2009,07,24,14,49,21.80
2009,07,24,14,50,21.80
2009,07,24,14,51,21.80
2009,07,24,14,52,21.80
2009,07,24,14,53,21.90
2009,07,24,14,54,21.80
2009,07,24,14,55,21.80
2009,07,24,14,56,21.80
2009,07,24,14,57,21.80
2009,07,24,14,58,21.80
2009,07,24,14,59,21.80
2009,07,24,15,00,21.80
2009,07,24,15,01,21.90
2009,07,24,15,02,22.00
2009,07,24,15,03,22.10
2009,07,24,15,04,22.20
2009,07,24,15,05,22.40
2009,07,24,15,06,22.50
2009,07,24,15,07,22.50
2009,07,24,15,08,22.60
2009,07,24,15,09,22.50
2009,07,24,15,10,22.40
2009,07,24,15,11,22.40
2009,07,24,15,12,22.40
2009,07,24,15,13,22.40
2009,07,24,15,14,22.50
2009,07,24,15,15,22.40
2009,07,24,15,16,22.40
2009,07,24,15,17,22.50
2009,07,24,15,18,22.60
2009,07,24,15,19,22.70
2009,07,24,15,20,22.70
2009,07,24,15,21,22.80
2009,07,24,15,22,22.80
2009,07,24,15,23,22.80
2009,07,24,15,24,22.70
2009,07,24,15,25,22.70
2009,07,24,15,26,22.70
2009,07,24,15,27,22.60
2009,07,24,15,28,22.60
2009,07,24,15,29,22.50
2009,07,24,15,30,22.40
2009,07,24,15,31,22.40
2009,07,24,15,32,22.60
2009,07,24,15,33,22.70
2009,07,24,15,34,22.80
2009,07,24,15,35,22.90
2009,07,24,15,36,23.00
2009,07,24,15,37,23.10
2009,07,24,15,38,23.00
2009,07,24,15,39,23.00
2009,07,24,15,40,23.00
2009,07,24,15,41,23.00
2009,07,24,15,42,23.00
2009,07,24,15,43,23.10
2009,07,24,15,44,23.10
2009,07,24,15,45,23.20
2009,07,24,15,46,23.30
2009,07,24,15,47,23.40
2009,07,24,15,48,23.40
2009,07,24,15,49,23.40
2009,07,24,15,50,23.40
2009,07,24,15,51,23.30
2009,07,24,15,52,23.40
2009,07,24,15,53,23.40
2009,07,24,15,54,23.30
2009,07,24,15,55,23.20
2009,07,24,15,56,23.20
2009,07,24,15,57,23.30
2009,07,24,15,58,23.30
2009,07,24,15,59,23.40
2009,07,24,16,00,23.60
2009,07,24,16,01,23.70
2009,07,24,16,02,23.80
2009,07,24,16,03,23.90
2009,07,24,16,04,24.00
2009,07,24,16,05,24.00
2009,07,24,16,06,24.10
2009,07,24,16,07,24.10
2009,07,24,16,08,24.10
2009,07,24,16,09,24.10
2009,07,24,16,10,24.10
2009,07,24,16,11,24.10
2009,07,24,16,12,24.20
2009,07,24,16,13,24.20
2009,07,24,16,14,24.20
2009,07,24,16,15,24.30
2009,07,24,16,16,24.20
2009,07,24,16,17,24.20
2009,07,24,16,18,24.30
2009,07,24,16,19,24.40
2009,07,24,16,20,24.60
2009,07,24,16,21,24.70
2009,07,24,16,22,24.80
2009,07,24,16,23,24.80
2009,07,24,16,24,24.90
2009,07,24,16,25,24.90
2009,07,24,16,26,25.00
2009,07,24,16,27,25.20
2009,07,24,16,28,25.30
2009,07,24,16,29,25.40
2009,07,24,16,30,25.40
2009,07,24,16,31,25.40
2009,07,24,16,32,25.40
2009,07,24,16,33,25.40
2009,07,24,16,34,25.50
2009,07,24,16,35,25.60
2009,07,24,16,36,25.60
2009,07,24,16,37,25.60
2009,07,24,16,38,25.60
2009,07,24,16,39,25.60
2009,07,24,16,40,25.50
2009,07,24,16,41,25.50
2009,07,24,16,42,25.60
2009,07,24,16,43,25.60
2009,07,24,16,44,25.60
2009,07,24,16,45,25.60
2009,07,24,16,46,25.60
2009,07,24,16,47,25.60
2009,07,24,16,48,25.60
2009,07,24,16,49,25.60
2009,07,24,16,50,25.60
2009,07,24,16,51,25.60
2009,07,24,16,52,25.60
2009,07,24,16,53,25.60
2009,07,24,16,54,25.60
2009,07,24,16,55,25.60
2009,07,24,16,56,25.60
2009,07,24,16,57,25.70
2009,07,24,16,58,25.80
2009,07,24,16,59,25.80
2009,07,24,17,00,25.70
2009,07,24,17,01,25.50
2009,07,24,17,02,25.40
2009,07,24,17,03,25.30
2009,07,24,17,04,25.20
2009,07,24,17,05,25.10
2009,07,24,17,06,25.10
2009,07,24,17,07,25.00
2009,07,24,17,08,25.00
2009,07,24,17,09,25.00
2009,07,24,17,10,25.00
2009,07,24,17,11,25.00
2009,07,24,17,12,25.00
2009,07,24,17,13,25.00
2009,07,24,17,14,25.00
2009,07,24,17,15,25.00
2009,07,24,17,16,25.00
2009,07,24,17,17,25.10
2009,07,24,17,18,25.10
2009,07,24,17,19,25.20